contact:dominique.lefevre@mio.osupytheas.fr, maurice.libes@osupytheas.fr, didier.mallarino@osupytheas.fr
Project:EMSO http://www.emso-fr.org/EMSO-France
Depth: 2436.0 m
Title:EMSO Ligure Ouest : Data MII capteur MICROCAT
DateTime_Computer,Latitude,Longitude,Temperature,Conductivity,Pressure,DateTime_Instrument
DateTime_Computer,Latitude,Longitude,degC,S m-1,dbar,DateTime_Instrument
2020-07-21T00:02:12Z,42.805,6.029,13.3002,4.60062,2470.147,2020-7-21T02:02:59Z
2020-07-21T00:05:15Z,42.805,6.029,13.3001,4.60064,2470.11,2020-7-21T02:06:02Z
2020-07-21T00:08:18Z,42.805,6.029,13.3009,4.60052,2470.11,2020-7-21T02:09:06Z
2020-07-21T00:11:22Z,42.805,6.029,13.3014,4.60057,2470.133,2020-7-21T02:12:09Z
2020-07-21T00:14:25Z,42.805,6.029,13.3005,4.60029,2470.11,2020-7-21T02:15:12Z
2020-07-21T00:17:28Z,42.805,6.029,13.3021,4.60044,2470.087,2020-7-21T02:18:15Z
2020-07-21T00:20:31Z,42.805,6.029,13.3027,4.60044,2470.133,2020-7-21T02:21:19Z
2020-07-21T00:23:35Z,42.805,6.029,13.2991,4.60078,2470.147,2020-7-21T02:24:22Z
2020-07-21T00:26:38Z,42.805,6.029,13.3020,4.60052,2470.119,2020-7-21T02:27:25Z
2020-07-21T00:29:41Z,42.805,6.029,13.3020,4.60041,2470.11,2020-7-21T02:30:28Z
2020-07-21T00:32:44Z,42.805,6.029,13.3017,4.60014,2470.147,2020-7-21T02:33:32Z
2020-07-21T00:35:48Z,42.805,6.029,13.3028,4.60024,2470.124,2020-7-21T02:36:35Z
2020-07-21T00:38:51Z,42.805,6.029,13.3029,4.60039,2470.1,2020-7-21T02:39:38Z
2020-07-21T00:41:54Z,42.805,6.029,13.3030,4.60038,2470.087,2020-7-21T02:42:41Z
2020-07-21T00:44:57Z,42.805,6.029,13.3039,4.60033,2470.1,2020-7-21T02:45:44Z
2020-07-21T00:48:00Z,42.805,6.029,13.3020,4.60029,2470.087,2020-7-21T02:48:48Z
2020-07-21T00:51:04Z,42.805,6.029,13.3028,4.60058,2470.1,2020-7-21T02:51:51Z
2020-07-21T00:54:07Z,42.805,6.029,13.3035,4.60059,2470.087,2020-7-21T02:54:54Z
2020-07-21T00:57:11Z,42.805,6.029,13.3023,4.60033,2470.063,2020-7-21T02:57:58Z
2020-07-21T01:00:14Z,42.805,6.029,13.3011,4.60041,2470.133,2020-7-21T03:01:01Z
2020-07-21T01:03:17Z,42.805,6.029,13.3034,4.60056,2470.077,2020-7-21T03:04:04Z
2020-07-21T01:06:20Z,42.805,6.029,13.3034,4.60044,2470.077,2020-7-21T03:07:08Z
2020-07-21T01:09:24Z,42.805,6.029,13.3010,4.60036,2470.124,2020-7-21T03:10:11Z
2020-07-21T01:12:27Z,42.805,6.029,13.3009,4.60042,2470.087,2020-7-21T03:13:14Z
2020-07-21T01:15:30Z,42.805,6.029,13.3024,4.60025,2470.063,2020-7-21T03:16:17Z
2020-07-21T01:18:33Z,42.805,6.029,13.3031,4.60022,2470.124,2020-7-21T03:19:20Z
2020-07-21T01:21:37Z,42.805,6.029,13.3029,4.60021,2470.087,2020-7-21T03:22:24Z
2020-07-21T01:24:40Z,42.805,6.029,13.3047,4.60063,2470.087,2020-7-21T03:25:27Z
2020-07-21T01:27:43Z,42.805,6.029,13.3048,4.60033,2470.1,2020-7-21T03:28:30Z
2020-07-21T01:30:46Z,42.805,6.029,13.3048,4.60002,2470.063,2020-7-21T03:31:34Z
2020-07-21T01:33:50Z,42.805,6.029,13.3003,4.60026,2470.1,2020-7-21T03:34:37Z
2020-07-21T01:36:53Z,42.805,6.029,13.3015,4.60025,2470.1,2020-7-21T03:37:40Z
2020-07-21T01:39:56Z,42.805,6.029,13.3008,4.60064,2470.077,2020-7-21T03:40:43Z
2020-07-21T01:42:59Z,42.805,6.029,13.3012,4.60081,2470.1,2020-7-21T03:43:47Z
2020-07-21T01:46:03Z,42.805,6.029,13.3023,4.60074,2470.077,2020-7-21T03:46:50Z
2020-07-21T01:49:06Z,42.805,6.029,13.3034,4.60051,2470.077,2020-7-21T03:49:53Z
2020-07-21T01:52:09Z,42.805,6.029,13.3035,4.60045,2470.077,2020-7-21T03:52:56Z
2020-07-21T01:55:12Z,42.805,6.029,13.3045,4.60007,2470.053,2020-7-21T03:56:00Z
2020-07-21T01:58:16Z,42.805,6.029,13.3029,4.60055,2470.1,2020-7-21T03:59:03Z
2020-07-21T02:01:19Z,42.805,6.029,13.3001,4.60062,2470.087,2020-7-21T04:02:06Z
2020-07-21T02:04:22Z,42.805,6.029,13.3025,4.60058,2470.063,2020-7-21T04:05:09Z
2020-07-21T02:07:25Z,42.805,6.029,13.3049,4.60010,2470.087,2020-7-21T04:08:13Z
2020-07-21T02:10:29Z,42.805,6.029,13.3031,4.60034,2470.1,2020-7-21T04:11:16Z
2020-07-21T02:13:32Z,42.805,6.029,13.3031,4.60042,2470.087,2020-7-21T04:14:19Z
2020-07-21T02:16:35Z,42.805,6.029,13.3006,4.60070,2470.063,2020-7-21T04:17:22Z
2020-07-21T02:19:38Z,42.805,6.029,13.3033,4.60029,2470.053,2020-7-21T04:20:26Z
2020-07-21T02:22:42Z,42.805,6.029,13.3041,4.60050,2470.077,2020-7-21T04:23:29Z
2020-07-21T02:25:45Z,42.805,6.029,13.3054,4.60052,2470.063,2020-7-21T04:26:32Z
2020-07-21T02:28:48Z,42.805,6.029,13.3035,4.60046,2470.077,2020-7-21T04:29:35Z
2020-07-21T02:31:51Z,42.805,6.029,13.3043,4.60083,2470.053,2020-7-21T04:32:39Z
2020-07-21T02:34:55Z,42.805,6.029,13.3034,4.60040,2470.1,2020-7-21T04:35:42Z
2020-07-21T02:37:58Z,42.805,6.029,13.3063,4.60050,2470.063,2020-7-21T04:38:45Z
2020-07-21T02:41:01Z,42.805,6.029,13.3047,4.60030,2470.077,2020-7-21T04:41:48Z
2020-07-21T02:44:05Z,42.805,6.029,13.3015,4.60068,2470.053,2020-7-21T04:44:52Z
2020-07-21T02:47:08Z,42.805,6.029,13.3009,4.60092,2470.053,2020-7-21T04:47:55Z
2020-07-21T02:50:11Z,42.805,6.029,13.3024,4.60050,2470.063,2020-7-21T04:50:58Z
2020-07-21T02:53:14Z,42.805,6.029,13.3027,4.60041,2470.04,2020-7-21T04:54:02Z
2020-07-21T02:56:18Z,42.805,6.029,13.3049,4.60024,2470.04,2020-7-21T04:57:05Z
2020-07-21T02:59:21Z,42.805,6.029,13.3061,4.60097,2470.063,2020-7-21T05:00:08Z
2020-07-21T03:02:24Z,42.805,6.029,13.3044,4.60062,2470.04,2020-7-21T05:03:11Z
2020-07-21T03:05:27Z,42.805,6.029,13.3012,4.60008,2470.063,2020-7-21T05:06:14Z
2020-07-21T03:08:31Z,42.805,6.029,13.3015,4.60029,2470.087,2020-7-21T05:09:18Z
2020-07-21T03:11:34Z,42.805,6.029,13.3033,4.60040,2470.077,2020-7-21T05:12:21Z
2020-07-21T03:14:37Z,42.805,6.029,13.3004,4.60065,2470.063,2020-7-21T05:15:24Z
2020-07-21T03:17:40Z,42.805,6.029,13.3026,4.60048,2470.063,2020-7-21T05:18:28Z
2020-07-21T03:20:44Z,42.805,6.029,13.2986,4.60054,2470.063,2020-7-21T05:21:31Z
2020-07-21T03:23:47Z,42.805,6.029,13.2993,4.60029,2470.053,2020-7-21T05:24:34Z
2020-07-21T03:26:50Z,42.805,6.029,13.3010,4.60042,2470.077,2020-7-21T05:27:37Z
2020-07-21T03:29:53Z,42.805,6.029,13.3015,4.60057,2470.077,2020-7-21T05:30:41Z
2020-07-21T03:32:57Z,42.805,6.029,13.2996,4.60058,2470.063,2020-7-21T05:33:44Z
2020-07-21T03:36:00Z,42.805,6.029,13.3051,4.60029,2470.063,2020-7-21T05:36:47Z
2020-07-21T03:39:03Z,42.805,6.029,13.3031,4.60030,2470.04,2020-7-21T05:39:50Z
2020-07-21T03:42:06Z,42.805,6.029,13.3054,4.60069,2470.1,2020-7-21T05:42:54Z
2020-07-21T03:45:10Z,42.805,6.029,13.3013,4.60058,2470.1,2020-7-21T05:45:57Z
2020-07-21T03:48:13Z,42.805,6.029,13.3003,4.60081,2470.087,2020-7-21T05:49:00Z
2020-07-21T03:51:16Z,42.805,6.029,13.3026,4.60029,2470.063,2020-7-21T05:52:03Z
2020-07-21T03:54:19Z,42.805,6.029,13.3043,4.60044,2470.053,2020-7-21T05:55:06Z
2020-07-21T03:57:23Z,42.805,6.029,13.3066,4.60069,2470.053,2020-7-21T05:58:10Z
2020-07-21T04:00:26Z,42.805,6.029,13.3055,4.60035,2470.124,2020-7-21T06:01:13Z
2020-07-21T04:03:29Z,42.805,6.029,13.3009,4.60040,2470.063,2020-7-21T06:04:16Z
2020-07-21T04:06:32Z,42.805,6.029,13.3001,4.60076,2470.063,2020-7-21T06:07:19Z
2020-07-21T04:09:36Z,42.805,6.029,13.3015,4.60037,2470.1,2020-7-21T06:10:23Z
2020-07-21T04:12:39Z,42.805,6.029,13.3003,4.60059,2470.053,2020-7-21T06:13:26Z
2020-07-21T04:15:42Z,42.805,6.029,13.3043,4.60031,2470.124,2020-7-21T06:16:29Z
2020-07-21T04:18:45Z,42.805,6.029,13.2993,4.60053,2470.1,2020-7-21T06:19:32Z
2020-07-21T04:21:49Z,42.805,6.029,13.3020,4.60087,2470.1,2020-7-21T06:22:36Z
2020-07-21T04:24:52Z,42.805,6.029,13.3054,4.60044,2470.11,2020-7-21T06:25:39Z
2020-07-21T04:27:55Z,42.805,6.029,13.3050,4.60053,2470.063,2020-7-21T06:28:42Z
2020-07-21T04:30:58Z,42.805,6.029,13.3004,4.60070,2470.087,2020-7-21T06:31:46Z
2020-07-21T04:34:02Z,42.805,6.029,13.2998,4.60092,2470.087,2020-7-21T06:34:49Z
2020-07-21T04:37:05Z,42.805,6.029,13.3002,4.60099,2470.087,2020-7-21T06:37:52Z
2020-07-21T04:40:08Z,42.805,6.029,13.3003,4.60019,2470.11,2020-7-21T06:40:56Z
2020-07-21T04:43:12Z,42.805,6.029,13.2993,4.60056,2470.1,2020-7-21T06:43:59Z
2020-07-21T04:46:15Z,42.805,6.029,13.2993,4.60062,2470.11,2020-7-21T06:47:02Z
2020-07-21T04:49:18Z,42.805,6.029,13.3010,4.60060,2470.087,2020-7-21T06:50:05Z
2020-07-21T04:52:21Z,42.805,6.029,13.2998,4.60108,2470.124,2020-7-21T06:53:09Z
2020-07-21T04:55:25Z,42.805,6.029,13.2998,4.60026,2470.147,2020-7-21T06:56:12Z
2020-07-21T04:58:28Z,42.805,6.029,13.2994,4.60054,2470.11,2020-7-21T06:59:15Z
2020-07-21T05:01:31Z,42.805,6.029,13.3000,4.60069,2470.124,2020-7-21T07:02:18Z
2020-07-21T05:04:34Z,42.805,6.029,13.3015,4.60060,2470.133,2020-7-21T07:05:22Z
2020-07-21T05:07:38Z,42.805,6.029,13.3039,4.60031,2470.171,2020-7-21T07:08:25Z
2020-07-21T05:10:41Z,42.805,6.029,13.3008,4.60067,2470.133,2020-7-21T07:11:28Z
2020-07-21T05:13:44Z,42.805,6.029,13.3014,4.60021,2470.171,2020-7-21T07:14:31Z
2020-07-21T05:16:47Z,42.805,6.029,13.2993,4.60049,2470.11,2020-7-21T07:17:34Z
2020-07-21T05:19:50Z,42.805,6.029,13.3003,4.60067,2470.11,2020-7-21T07:20:38Z
2020-07-21T05:22:54Z,42.805,6.029,13.2997,4.60040,2470.171,2020-7-21T07:23:41Z
2020-07-21T05:25:57Z,42.805,6.029,13.3024,4.60075,2470.147,2020-7-21T07:26:44Z
2020-07-21T05:29:00Z,42.805,6.029,13.3000,4.60052,2470.171,2020-7-21T07:29:47Z
2020-07-21T05:32:03Z,42.805,6.029,13.2989,4.60057,2470.171,2020-7-21T07:32:51Z
2020-07-21T05:35:07Z,42.805,6.029,13.2995,4.60055,2470.133,2020-7-21T07:35:54Z
2020-07-21T05:38:10Z,42.805,6.029,13.3009,4.60022,2470.18,2020-7-21T07:38:57Z
2020-07-21T05:41:13Z,42.805,6.029,13.3008,4.60059,2470.18,2020-7-21T07:42:00Z
2020-07-21T05:44:16Z,42.805,6.029,13.3005,4.60061,2470.156,2020-7-21T07:45:04Z
2020-07-21T05:47:20Z,42.805,6.029,13.3008,4.60043,2470.147,2020-7-21T07:48:07Z
2020-07-21T05:50:23Z,42.805,6.029,13.3004,4.60057,2470.194,2020-7-21T07:51:10Z
2020-07-21T05:53:26Z,42.805,6.029,13.3014,4.60034,2470.18,2020-7-21T07:54:13Z
2020-07-21T05:56:29Z,42.805,6.029,13.3004,4.60048,2470.156,2020-7-21T07:57:16Z
2020-07-21T05:59:32Z,42.805,6.029,13.3020,4.60026,2470.156,2020-7-21T08:00:20Z
2020-07-21T06:02:36Z,42.805,6.029,13.3007,4.60055,2470.217,2020-7-21T08:03:23Z
2020-07-21T06:05:39Z,42.805,6.029,13.3006,4.60054,2470.171,2020-7-21T08:06:26Z
2020-07-21T06:08:42Z,42.805,6.029,13.3010,4.60021,2470.203,2020-7-21T08:09:29Z
2020-07-21T06:11:45Z,42.805,6.029,13.2996,4.60058,2470.18,2020-7-21T08:12:33Z
2020-07-21T06:14:49Z,42.805,6.029,13.2990,4.60072,2470.194,2020-7-21T08:15:36Z
2020-07-21T06:17:52Z,42.805,6.029,13.3002,4.60069,2470.171,2020-7-21T08:18:39Z
2020-07-21T06:20:55Z,42.805,6.029,13.2999,4.60048,2470.217,2020-7-21T08:21:42Z
2020-07-21T06:23:59Z,42.805,6.029,13.2999,4.60067,2470.194,2020-7-21T08:24:46Z
2020-07-21T06:27:02Z,42.805,6.029,13.2986,4.60058,2470.203,2020-7-21T08:27:49Z
2020-07-21T06:30:05Z,42.805,6.029,13.2988,4.60046,2470.171,2020-7-21T08:30:52Z
2020-07-21T06:33:08Z,42.805,6.029,13.3002,4.60045,2470.18,2020-7-21T08:33:56Z
2020-07-21T06:36:12Z,42.805,6.029,13.2985,4.60057,2470.203,2020-7-21T08:36:59Z
2020-07-21T06:39:15Z,42.805,6.029,13.2991,4.60044,2470.203,2020-7-21T08:40:02Z
2020-07-21T06:42:18Z,42.805,6.029,13.2989,4.60050,2470.194,2020-7-21T08:43:05Z
2020-07-21T06:45:21Z,42.805,6.029,13.2995,4.60028,2470.18,2020-7-21T08:46:09Z
2020-07-21T06:48:25Z,42.805,6.029,13.2995,4.60046,2470.18,2020-7-21T08:49:12Z
2020-07-21T06:51:28Z,42.805,6.029,13.3013,4.60054,2470.194,2020-7-21T08:52:15Z
2020-07-21T06:54:31Z,42.805,6.029,13.2995,4.60049,2470.217,2020-7-21T08:55:18Z
2020-07-21T06:57:34Z,42.805,6.029,13.2998,4.60054,2470.203,2020-7-21T08:58:21Z
2020-07-21T07:00:37Z,42.805,6.029,13.2994,4.60054,2470.194,2020-7-21T09:01:25Z
2020-07-21T07:03:41Z,42.805,6.029,13.2991,4.60081,2470.18,2020-7-21T09:04:28Z
2020-07-21T07:06:44Z,42.805,6.029,13.2999,4.60048,2470.18,2020-7-21T09:07:31Z
2020-07-21T07:09:47Z,42.805,6.029,13.2999,4.60046,2470.194,2020-7-21T09:10:34Z
2020-07-21T07:12:50Z,42.805,6.029,13.3000,4.60029,2470.203,2020-7-21T09:13:38Z
2020-07-21T07:15:54Z,42.805,6.029,13.3006,4.60044,2470.203,2020-7-21T09:16:41Z
2020-07-21T07:18:57Z,42.805,6.029,13.2998,4.60054,2470.203,2020-7-21T09:19:44Z
2020-07-21T07:22:00Z,42.805,6.029,13.2992,4.60049,2470.18,2020-7-21T09:22:47Z
2020-07-21T07:25:03Z,42.805,6.029,13.2991,4.60041,2470.18,2020-7-21T09:25:51Z
2020-07-21T07:28:07Z,42.805,6.029,13.2993,4.60033,2470.156,2020-7-21T09:28:54Z
2020-07-21T07:31:10Z,42.805,6.029,13.2991,4.60021,2470.227,2020-7-21T09:31:57Z
2020-07-21T07:34:13Z,42.805,6.029,13.2999,4.60052,2470.203,2020-7-21T09:35:00Z
2020-07-21T07:37:16Z,42.805,6.029,13.2989,4.60045,2470.18,2020-7-21T09:38:04Z
2020-07-21T07:40:20Z,42.805,6.029,13.2991,4.60042,2470.18,2020-7-21T09:41:07Z
2020-07-21T07:43:23Z,42.805,6.029,13.2983,4.60049,2470.18,2020-7-21T09:44:10Z
2020-07-21T07:46:26Z,42.805,6.029,13.2986,4.60029,2470.194,2020-7-21T09:47:13Z
2020-07-21T07:49:29Z,42.805,6.029,13.2996,4.60025,2470.217,2020-7-21T09:50:17Z
2020-07-21T07:52:32Z,42.805,6.029,13.2995,4.60062,2470.203,2020-7-21T09:53:20Z
2020-07-21T07:55:36Z,42.805,6.029,13.2991,4.60024,2470.18,2020-7-21T09:56:23Z
2020-07-21T07:58:39Z,42.805,6.029,13.2992,4.60028,2470.194,2020-7-21T09:59:26Z
2020-07-21T08:01:42Z,42.805,6.029,13.2990,4.60028,2470.217,2020-7-21T10:02:30Z
2020-07-21T08:04:46Z,42.805,6.029,13.2998,4.60021,2470.203,2020-7-21T10:05:33Z
2020-07-21T08:07:49Z,42.805,6.029,13.2996,4.60027,2470.18,2020-7-21T10:08:36Z
2020-07-21T08:10:52Z,42.805,6.029,13.3003,4.60055,2470.203,2020-7-21T10:11:39Z
2020-07-21T08:13:55Z,42.805,6.029,13.3007,4.60052,2470.18,2020-7-21T10:14:43Z
2020-07-21T08:16:59Z,42.805,6.029,13.2988,4.60026,2470.18,2020-7-21T10:17:46Z
2020-07-21T08:20:02Z,42.805,6.029,13.2989,4.60021,2470.156,2020-7-21T10:20:49Z
2020-07-21T08:23:05Z,42.805,6.029,13.2990,4.60029,2470.18,2020-7-21T10:23:52Z
2020-07-21T08:26:08Z,42.805,6.029,13.2994,4.60040,2470.156,2020-7-21T10:26:56Z
2020-07-21T08:29:12Z,42.805,6.029,13.2986,4.60024,2470.171,2020-7-21T10:29:59Z
2020-07-21T08:32:15Z,42.805,6.029,13.2991,4.60023,2470.18,2020-7-21T10:33:02Z
2020-07-21T08:35:18Z,42.805,6.029,13.2993,4.60057,2470.18,2020-7-21T10:36:05Z
2020-07-21T08:38:21Z,42.805,6.029,13.2988,4.60038,2470.194,2020-7-21T10:39:09Z
2020-07-21T08:41:25Z,42.805,6.029,13.2994,4.60035,2470.171,2020-7-21T10:42:12Z
2020-07-21T08:44:28Z,42.805,6.029,13.2999,4.60032,2470.18,2020-7-21T10:45:15Z
2020-07-21T08:47:31Z,42.805,6.029,13.3002,4.60036,2470.156,2020-7-21T10:48:18Z
2020-07-21T08:50:34Z,42.805,6.029,13.2992,4.60034,2470.194,2020-7-21T10:51:22Z
2020-07-21T08:53:38Z,42.805,6.029,13.2996,4.60032,2470.156,2020-7-21T10:54:25Z
2020-07-21T08:56:41Z,42.805,6.029,13.3001,4.60052,2470.171,2020-7-21T10:57:28Z
2020-07-21T08:59:44Z,42.805,6.029,13.2991,4.60037,2470.171,2020-7-21T11:00:31Z
2020-07-21T09:02:47Z,42.805,6.029,13.2991,4.60026,2470.171,2020-7-21T11:03:35Z
2020-07-21T09:05:51Z,42.805,6.029,13.2995,4.60033,2470.124,2020-7-21T11:06:38Z
2020-07-21T09:08:54Z,42.805,6.029,13.2986,4.60017,2470.133,2020-7-21T11:09:41Z
2020-07-21T09:11:57Z,42.805,6.029,13.2993,4.60013,2470.147,2020-7-21T11:12:45Z
2020-07-21T09:15:01Z,42.805,6.029,13.2990,4.60017,2470.133,2020-7-21T11:15:48Z
2020-07-21T09:18:04Z,42.805,6.029,13.2996,4.60023,2470.133,2020-7-21T11:18:51Z
2020-07-21T09:21:07Z,42.805,6.029,13.2997,4.60055,2470.133,2020-7-21T11:21:54Z
2020-07-21T09:24:10Z,42.805,6.029,13.2998,4.60040,2470.147,2020-7-21T11:24:57Z
2020-07-21T09:27:13Z,42.805,6.029,13.2984,4.60029,2470.156,2020-7-21T11:28:01Z
2020-07-21T09:30:17Z,42.805,6.029,13.2986,4.60029,2470.147,2020-7-21T11:31:04Z
2020-07-21T09:33:20Z,42.805,6.029,13.2988,4.60014,2470.133,2020-7-21T11:34:07Z
2020-07-21T09:36:23Z,42.805,6.029,13.2990,4.60016,2470.147,2020-7-21T11:37:10Z
2020-07-21T09:39:27Z,42.805,6.029,13.2986,4.60023,2470.133,2020-7-21T11:40:14Z
2020-07-21T09:42:30Z,42.805,6.029,13.2987,4.60022,2470.147,2020-7-21T11:43:17Z
2020-07-21T09:45:33Z,42.805,6.029,13.2987,4.60023,2470.133,2020-7-21T11:46:20Z
2020-07-21T09:48:36Z,42.805,6.029,13.2993,4.60005,2470.124,2020-7-21T11:49:24Z
2020-07-21T09:51:40Z,42.805,6.029,13.2983,4.60011,2470.133,2020-7-21T11:52:27Z
2020-07-21T09:54:43Z,42.805,6.029,13.2997,4.60046,2470.133,2020-7-21T11:55:30Z
2020-07-21T09:57:46Z,42.805,6.029,13.2997,4.60029,2470.133,2020-7-21T11:58:33Z
2020-07-21T10:00:49Z,42.805,6.029,13.2991,4.60037,2470.133,2020-7-21T12:01:37Z
2020-07-21T10:03:53Z,42.805,6.029,13.2984,4.60026,2470.124,2020-7-21T12:04:40Z
2020-07-21T10:06:56Z,42.805,6.029,13.2991,4.60019,2470.147,2020-7-21T12:07:43Z
2020-07-21T10:09:59Z,42.805,6.029,13.2984,4.60033,2470.087,2020-7-21T12:10:46Z
2020-07-21T10:13:02Z,42.805,6.029,13.2990,4.60021,2470.124,2020-7-21T12:13:49Z
2020-07-21T10:16:06Z,42.805,6.029,13.2987,4.60033,2470.147,2020-7-21T12:16:53Z
2020-07-21T10:19:09Z,42.805,6.029,13.2985,4.60052,2470.124,2020-7-21T12:19:56Z
2020-07-21T10:22:12Z,42.805,6.029,13.2991,4.60029,2470.1,2020-7-21T12:22:59Z
2020-07-21T10:25:16Z,42.805,6.029,13.2991,4.60020,2470.087,2020-7-21T12:26:03Z
2020-07-21T10:28:19Z,42.805,6.029,13.2985,4.60017,2470.119,2020-7-21T12:29:06Z
2020-07-21T10:31:22Z,42.805,6.029,13.2994,4.60045,2470.1,2020-7-21T12:32:09Z
2020-07-21T10:34:25Z,42.805,6.029,13.2995,4.60049,2470.087,2020-7-21T12:35:13Z
2020-07-21T10:37:28Z,42.805,6.029,13.2993,4.60021,2470.087,2020-7-21T12:38:16Z
2020-07-21T10:40:32Z,42.805,6.029,13.2983,4.60026,2470.087,2020-7-21T12:41:19Z
2020-07-21T10:43:35Z,42.805,6.029,13.2990,4.60021,2470.11,2020-7-21T12:44:22Z
2020-07-21T10:46:38Z,42.805,6.029,13.2990,4.60015,2470.11,2020-7-21T12:47:25Z
2020-07-21T10:49:41Z,42.805,6.029,13.2993,4.60019,2470.087,2020-7-21T12:50:29Z
2020-07-21T10:52:45Z,42.805,6.029,13.2991,4.60025,2470.087,2020-7-21T12:53:32Z
2020-07-21T10:55:48Z,42.805,6.029,13.2991,4.60033,2470.087,2020-7-21T12:56:35Z
2020-07-21T10:58:51Z,42.805,6.029,13.3002,4.60039,2470.063,2020-7-21T12:59:38Z
2020-07-21T11:01:54Z,42.805,6.029,13.2987,4.60014,2470.063,2020-7-21T13:02:42Z
2020-07-21T11:04:58Z,42.805,6.029,13.2996,4.60033,2470.063,2020-7-21T13:05:45Z
2020-07-21T11:08:01Z,42.805,6.029,13.3007,4.60052,2470.077,2020-7-21T13:08:48Z
2020-07-21T11:11:04Z,42.805,6.029,13.2990,4.60035,2470.077,2020-7-21T13:11:51Z
2020-07-21T11:14:07Z,42.805,6.029,13.2983,4.60049,2470.087,2020-7-21T13:14:55Z
2020-07-21T11:17:11Z,42.805,6.029,13.2996,4.60019,2470.087,2020-7-21T13:17:58Z
2020-07-21T11:20:14Z,42.805,6.029,13.2999,4.60039,2470.063,2020-7-21T13:21:01Z
2020-07-21T11:23:17Z,42.805,6.029,13.2995,4.60021,2470.077,2020-7-21T13:24:04Z
2020-07-21T11:26:20Z,42.805,6.029,13.2983,4.60016,2470.049,2020-7-21T13:27:08Z
2020-07-21T11:29:24Z,42.805,6.029,13.2984,4.60042,2470.077,2020-7-21T13:30:11Z
2020-07-21T11:32:27Z,42.805,6.029,13.2995,4.60036,2470.063,2020-7-21T13:33:14Z
2020-07-21T11:35:30Z,42.805,6.029,13.2983,4.60041,2470.077,2020-7-21T13:36:17Z
2020-07-21T11:38:33Z,42.805,6.029,13.2982,4.60002,2470.077,2020-7-21T13:39:21Z
2020-07-21T11:41:37Z,42.805,6.029,13.2985,4.60036,2470.063,2020-7-21T13:42:24Z
2020-07-21T11:44:40Z,42.805,6.029,13.3009,4.60013,2470.053,2020-7-21T13:45:27Z
2020-07-21T11:47:43Z,42.805,6.029,13.2995,4.60038,2470.04,2020-7-21T13:48:30Z
2020-07-21T11:50:47Z,42.805,6.029,13.2982,4.60035,2470.063,2020-7-21T13:51:34Z
2020-07-21T11:53:50Z,42.805,6.029,13.2983,4.60031,2470.063,2020-7-21T13:54:37Z
2020-07-21T11:56:53Z,42.805,6.029,13.3012,4.60020,2470.04,2020-7-21T13:57:40Z
2020-07-21T11:59:56Z,42.805,6.029,13.2991,4.60020,2470.03,2020-7-21T14:00:44Z
2020-07-21T12:03:00Z,42.805,6.029,13.2985,4.60043,2470.053,2020-7-21T14:03:47Z
2020-07-21T12:06:03Z,42.805,6.029,13.2987,4.60035,2470.077,2020-7-21T14:06:50Z
2020-07-21T12:09:06Z,42.805,6.029,13.2991,4.60033,2470.017,2020-7-21T14:09:53Z
2020-07-21T12:12:09Z,42.805,6.029,13.2986,4.60023,2470.053,2020-7-21T14:12:57Z
2020-07-21T12:15:13Z,42.805,6.029,13.2992,4.60057,2470.017,2020-7-21T14:16:00Z
2020-07-21T12:18:16Z,42.805,6.029,13.2996,4.60052,2470.04,2020-7-21T14:19:03Z
2020-07-21T12:21:19Z,42.805,6.029,13.2985,4.60043,2470.053,2020-7-21T14:22:06Z
2020-07-21T12:24:22Z,42.805,6.029,13.2996,4.60042,2470.04,2020-7-21T14:25:10Z
2020-07-21T12:27:26Z,42.805,6.029,13.2991,4.60044,2470.053,2020-7-21T14:28:13Z
2020-07-21T12:30:29Z,42.805,6.029,13.3002,4.60046,2470.04,2020-7-21T14:31:16Z
2020-07-21T12:33:32Z,42.805,6.029,13.2996,4.60033,2470.053,2020-7-21T14:34:19Z
2020-07-21T12:36:35Z,42.805,6.029,13.2990,4.60039,2470.017,2020-7-21T14:37:23Z
2020-07-21T12:39:38Z,42.805,6.029,13.3009,4.60016,2470.04,2020-7-21T14:40:26Z
2020-07-21T12:42:42Z,42.805,6.029,13.2987,4.60019,2470.007,2020-7-21T14:43:29Z
2020-07-21T12:45:45Z,42.805,6.029,13.2991,4.60034,2470.017,2020-7-21T14:46:32Z
2020-07-21T12:48:48Z,42.805,6.029,13.3005,4.60045,2470.03,2020-7-21T14:49:35Z
2020-07-21T12:51:52Z,42.805,6.029,13.3002,4.60044,2470.017,2020-7-21T14:52:39Z
2020-07-21T12:54:55Z,42.805,6.029,13.3003,4.60046,2469.993,2020-7-21T14:55:42Z
2020-07-21T12:57:58Z,42.805,6.029,13.2994,4.60057,2470.017,2020-7-21T14:58:45Z
2020-07-21T13:01:01Z,42.805,6.029,13.3000,4.60060,2470.017,2020-7-21T15:01:48Z
2020-07-21T13:04:04Z,42.805,6.029,13.3006,4.60062,2470.017,2020-7-21T15:04:52Z
2020-07-21T13:07:08Z,42.805,6.029,13.3008,4.60057,2469.993,2020-7-21T15:07:55Z
2020-07-21T13:10:11Z,42.805,6.029,13.2988,4.60044,2470.017,2020-7-21T15:10:58Z
2020-07-21T13:13:14Z,42.805,6.029,13.3005,4.60026,2470.03,2020-7-21T15:14:01Z
2020-07-21T13:16:17Z,42.805,6.029,13.2998,4.60020,2470.017,2020-7-21T15:17:05Z
2020-07-21T13:19:21Z,42.805,6.029,13.3012,4.60043,2470.03,2020-7-21T15:20:08Z
2020-07-21T13:22:24Z,42.805,6.029,13.3001,4.60047,2470.017,2020-7-21T15:23:11Z
2020-07-21T13:25:27Z,42.805,6.029,13.2993,4.60036,2470.017,2020-7-21T15:26:15Z
2020-07-21T13:28:31Z,42.805,6.029,13.2990,4.60038,2470.017,2020-7-21T15:29:18Z
2020-07-21T13:31:34Z,42.805,6.029,13.3001,4.60028,2469.993,2020-7-21T15:32:21Z
2020-07-21T13:34:37Z,42.805,6.029,13.3015,4.60066,2469.993,2020-7-21T15:35:24Z
2020-07-21T13:37:40Z,42.805,6.029,13.2994,4.60035,2470.017,2020-7-21T15:38:28Z
2020-07-21T13:40:44Z,42.805,6.029,13.3010,4.60044,2470.017,2020-7-21T15:41:31Z
2020-07-21T13:43:47Z,42.805,6.029,13.2996,4.60036,2469.97,2020-7-21T15:44:34Z
2020-07-21T13:46:50Z,42.805,6.029,13.3004,4.60045,2470.03,2020-7-21T15:47:38Z
2020-07-21T13:49:54Z,42.805,6.029,13.3009,4.60061,2470.017,2020-7-21T15:50:41Z
2020-07-21T13:52:57Z,42.805,6.029,13.3012,4.60016,2469.993,2020-7-21T15:53:44Z
2020-07-21T13:56:00Z,42.805,6.029,13.2989,4.60011,2470.017,2020-7-21T15:56:47Z
2020-07-21T13:59:03Z,42.805,6.029,13.2987,4.60023,2470.017,2020-7-21T15:59:50Z
2020-07-21T14:02:06Z,42.805,6.029,13.3004,4.60039,2469.97,2020-7-21T16:02:54Z
2020-07-21T14:05:10Z,42.805,6.029,13.2986,4.60028,2470.007,2020-7-21T16:05:57Z
2020-07-21T14:08:13Z,42.805,6.029,13.2991,4.60040,2470.007,2020-7-21T16:09:00Z
2020-07-21T14:11:16Z,42.805,6.029,13.2990,4.60033,2470.007,2020-7-21T16:12:04Z
2020-07-21T14:14:20Z,42.805,6.029,13.2995,4.60047,2470.017,2020-7-21T16:15:07Z
2020-07-21T14:17:23Z,42.805,6.029,13.3009,4.60044,2470.007,2020-7-21T16:18:10Z
2020-07-21T14:20:26Z,42.805,6.029,13.3026,4.60057,2469.993,2020-7-21T16:21:13Z
2020-07-21T14:23:29Z,42.805,6.029,13.3034,4.60045,2469.993,2020-7-21T16:24:17Z
2020-07-21T14:26:33Z,42.805,6.029,13.3017,4.60060,2470.03,2020-7-21T16:27:20Z
2020-07-21T14:29:36Z,42.805,6.029,13.3016,4.60069,2470.007,2020-7-21T16:30:23Z
2020-07-21T14:32:39Z,42.805,6.029,13.3022,4.60007,2470.017,2020-7-21T16:33:26Z
2020-07-21T14:35:42Z,42.805,6.029,13.3000,4.60020,2469.993,2020-7-21T16:36:30Z
2020-07-21T14:38:46Z,42.805,6.029,13.2999,4.60050,2470.03,2020-7-21T16:39:33Z
2020-07-21T14:41:49Z,42.805,6.029,13.3004,4.60068,2470.007,2020-7-21T16:42:36Z
2020-07-21T14:44:52Z,42.805,6.029,13.2997,4.60052,2469.97,2020-7-21T16:45:39Z
2020-07-21T14:47:55Z,42.805,6.029,13.2986,4.60036,2470.017,2020-7-21T16:48:42Z
2020-07-21T14:50:59Z,42.805,6.029,13.2987,4.60074,2469.984,2020-7-21T16:51:46Z
2020-07-21T14:54:02Z,42.805,6.029,13.3021,4.60009,2470.03,2020-7-21T16:54:49Z
2020-07-21T14:57:05Z,42.805,6.029,13.3040,4.60082,2470.017,2020-7-21T16:57:52Z
2020-07-21T15:00:08Z,42.805,6.029,13.3038,4.60014,2470.017,2020-7-21T17:00:56Z
2020-07-21T15:03:12Z,42.805,6.029,13.3042,4.60052,2470.007,2020-7-21T17:03:59Z
2020-07-21T15:06:15Z,42.805,6.029,13.3022,4.60013,2470.03,2020-7-21T17:07:02Z
2020-07-21T15:09:18Z,42.805,6.029,13.2995,4.60044,2470.017,2020-7-21T17:10:05Z
2020-07-21T15:12:21Z,42.805,6.029,13.3011,4.60062,2469.993,2020-7-21T17:13:08Z
2020-07-21T15:15:25Z,42.805,6.029,13.3034,4.60024,2469.993,2020-7-21T17:16:12Z